KAL2171 RKSI-RJBE

Flight info

Callsign KAL2171
Flight time N/A
Altitude 31000
Route EGOBA2Y EGOBA Y697 LANAT Y597 MIHOU Y39 OYE V28 OLIVE
Aircraft B739/M-SDE2E3FGHIRWXY/LB1

Departure

Time 2026-05-07 09:48
Airport Incheon International Airport (RKSI)

Arrival

Time N/A
Airport Kobe Airport (RJBE)
Time Latitude Longitude Altitude Speed Heading
2026-05-07 09:35 37.46194 126.43276 32 ft 0 kts 54°
2026-05-07 09:40 37.46189 126.43267 32 ft 4 kts 56°
2026-05-07 09:40 37.46175 126.43238 32 ft 4 kts 62°
2026-05-07 09:40 37.46163 126.43207 32 ft 4 kts 72°
2026-05-07 09:40 37.46159 126.43175 32 ft 4 kts 103°
2026-05-07 09:41 37.46166 126.43158 32 ft 0 kts 145°
2026-05-07 09:42 37.46149 126.43172 32 ft 7 kts 145°
2026-05-07 09:43 37.46087 126.43227 31 ft 15 kts 144°
2026-05-07 09:43 37.45989 126.43282 32 ft 16 kts 191°
2026-05-07 09:43 37.45896 126.43221 30 ft 15 kts 169°
2026-05-07 09:43 37.45806 126.43290 32 ft 15 kts 144°
2026-05-07 09:44 37.45709 126.43376 30 ft 19 kts 144°
2026-05-07 09:44 37.45586 126.43486 31 ft 24 kts 144°
2026-05-07 09:44 37.45452 126.43604 32 ft 23 kts 145°
2026-05-07 09:44 37.45324 126.43719 30 ft 22 kts 144°
2026-05-07 09:45 37.45199 126.43829 30 ft 22 kts 145°
2026-05-07 09:45 37.45078 126.43937 30 ft 21 kts 144°
2026-05-07 09:45 37.44960 126.44042 30 ft 20 kts 145°
2026-05-07 09:45 37.44847 126.44143 30 ft 20 kts 145°
2026-05-07 09:46 37.44737 126.44241 31 ft 19 kts 144°
2026-05-07 09:46 37.44630 126.44336 30 ft 19 kts 144°
2026-05-07 09:46 37.44535 126.44414 32 ft 13 kts 163°
2026-05-07 09:46 37.44461 126.44362 32 ft 13 kts 232°
2026-05-07 09:47 37.44411 126.44273 32 ft 12 kts 235°
2026-05-07 09:47 37.44375 126.44179 30 ft 12 kts 279°
2026-05-07 09:47 37.44425 126.44101 32 ft 12 kts 324°
2026-05-07 09:47 37.44557 126.43982 31 ft 55 kts 325°
2026-05-07 09:48 37.45091 126.43507 31 ft 130 kts 324°
2026-05-07 09:48 37.45973 126.42713 197 ft 173 kts 323°
2026-05-07 09:48 37.46990 126.41793 785 ft 189 kts 322°
2026-05-07 09:48 37.48061 126.40854 1686 ft 185 kts 322°
2026-05-07 09:49 37.49165 126.39871 2102 ft 207 kts 324°
2026-05-07 09:49 37.50397 126.38798 2576 ft 220 kts 322°
2026-05-07 09:49 37.51414 126.37301 3031 ft 238 kts 294°
2026-05-07 09:49 37.51752 126.35211 3683 ft 250 kts 272°
2026-05-07 09:50 37.51675 126.33006 4611 ft 253 kts 268°
2026-05-07 09:50 37.51528 126.30813 5548 ft 254 kts 267°
2026-05-07 09:50 37.51386 126.28592 6504 ft 255 kts 266°
2026-05-07 09:50 37.51257 126.26369 7417 ft 255 kts 266°
2026-05-07 09:51 37.51135 126.24139 8370 ft 254 kts 266°
2026-05-07 09:51 37.51016 126.21915 9326 ft 254 kts 265°
2026-05-07 09:51 37.50568 126.19779 10175 ft 257 kts 243°
2026-05-07 09:51 37.49404 126.17932 10477 ft 286 kts 224°
2026-05-07 09:52 37.47618 126.16626 10675 ft 317 kts 207°
2026-05-07 09:52 37.45465 126.15612 10929 ft 338 kts 205°
2026-05-07 09:52 37.43115 126.14984 11450 ft 358 kts 186°
2026-05-07 09:52 37.40620 126.15595 12185 ft 376 kts 164°
2026-05-07 09:53 37.38306 126.17260 12880 ft 393 kts 145°
2026-05-07 09:53 37.36401 126.19795 13627 ft 402 kts 135°
2026-05-07 09:53 37.34602 126.22518 14221 ft 409 kts 131°
2026-05-07 09:53 37.33208 126.25697 14751 ft 423 kts 114°
2026-05-07 09:54 37.32509 126.29326 15353 ft 434 kts 98°
2026-05-07 09:54 37.32434 126.33100 15901 ft 440 kts 91°
2026-05-07 09:54 37.32479 126.36973 16439 ft 446 kts 91°
2026-05-07 09:54 37.32501 126.40912 16944 ft 452 kts 92°
2026-05-07 09:55 37.32482 126.44887 17476 ft 456 kts 93°
2026-05-07 09:55 37.32439 126.48892 17989 ft 461 kts 94°
2026-05-07 09:55 37.32389 126.52942 18427 ft 466 kts 94°
2026-05-07 09:55 37.32339 126.57032 18841 ft 471 kts 94°
2026-05-07 09:56 37.32289 126.61169 19281 ft 474 kts 94°
2026-05-07 09:56 37.32241 126.65340 19733 ft 478 kts 94°
2026-05-07 09:56 37.32190 126.69545 20179 ft 482 kts 94°
2026-05-07 09:56 37.32140 126.73731 20604 ft 487 kts 94°
2026-05-07 09:57 37.32091 126.78010 21016 ft 490 kts 94°
2026-05-07 09:57 37.32042 126.82307 21443 ft 494 kts 94°
2026-05-07 09:57 37.31993 126.86644 21849 ft 498 kts 94°
2026-05-07 09:57 37.31940 126.91019 22285 ft 502 kts 94°
2026-05-07 09:58 37.31941 126.95425 22643 ft 508 kts 89°
2026-05-07 09:58 37.32426 126.99853 22960 ft 515 kts 78°
2026-05-07 09:58 37.33450 127.04169 23384 ft 517 kts 68°
2026-05-07 09:58 37.34963 127.08218 23702 ft 518 kts 58°
2026-05-07 09:59 37.36785 127.12122 24025 ft 519 kts 57°
2026-05-07 09:59 37.38658 127.16036 24318 ft 523 kts 57°
2026-05-07 09:59 37.40525 127.19976 24663 ft 526 kts 57°
2026-05-07 09:59 37.42377 127.23966 24890 ft 531 kts 58°
2026-05-07 10:00 37.44222 127.28013 25159 ft 534 kts 58°
2026-05-07 10:00 37.46064 127.32078 25479 ft 536 kts 58°
2026-05-07 10:00 37.47843 127.36233 25784 ft 541 kts 64°
2026-05-07 10:00 37.49227 127.40652 26042 ft 545 kts 73°
2026-05-07 10:01 37.50094 127.45299 26324 ft 546 kts 80°
2026-05-07 10:01 37.50781 127.50022 26594 ft 549 kts 81°
2026-05-07 10:01 37.51451 127.54691 26927 ft 550 kts 81°
2026-05-07 10:01 37.52174 127.59457 27209 ft 553 kts 80°
2026-05-07 10:02 37.52936 127.64222 27470 ft 556 kts 79°
2026-05-07 10:02 37.53712 127.69000 27765 ft 558 kts 79°
2026-05-07 10:02 37.54223 127.72176 27899 ft 560 kts 80°
2026-05-07 10:02 37.54987 127.76979 28382 ft 557 kts 80°
2026-05-07 10:03 37.55741 127.81757 28874 ft 556 kts 80°
2026-05-07 10:03 37.56493 127.86545 29182 ft 558 kts 80°
2026-05-07 10:03 37.57247 127.91356 29454 ft 561 kts 80°
2026-05-07 10:03 37.58002 127.96177 29769 ft 561 kts 81°
2026-05-07 10:04 37.58757 128.01005 30234 ft 558 kts 81°
2026-05-07 10:04 37.59500 128.05768 30773 ft 551 kts 81°
2026-05-07 10:04 37.60239 128.10511 30862 ft 552 kts 81°